User: anonymous
Location: Unspecified
(0.0000°N, 0.0000°E)
Time: 03:10:44
(UTC+02:00)
Language:

Cosmos 2219 - Orbit

View from above orbital plane
View from above orbital plane
View from above satellite
View from above satellite

Ground track
Ground track

The orbit data is extracted from the following two-line orbital elements,

1 22219U 92076A   14237.43910126 -.00000212  00000-0 -87636-4 0  5822
2 22219 071.0588 182.3083 0017360 163.0073 331.5159 14.13484690123125
Epoch (UTC): 25 August 2014 10:32:18
Eccentricity: 0.0017360
inclination: 71.0588°
perigee height: 835 km
apogee height: 860 km
right ascension of ascending node: 182.3083°
argument of perigee: 163.0073°
revolutions per day: 14.13484690
mean anomaly at epoch: 331.5159°
orbit number at epoch: 12312

The dashed part of the orbit path shows where the satellite is in the earth's shadow,  

DLR